Location: Esterri de Aneo
(42.6284°N, 1.1223°E)
Time: 09:36:00
(UTC+00:00)

SL-16 R/B - Pass Details

Date: 11 December 2025
Orbit: 841 x 844 km, 71.0° (Epoch: 21 January)

Event Time Altitude Azimuth Distance (km) Brightness Sun altitude
Rises 17:52:12 0° 152° (SSE) 3,383 5.2 -15.9°
Reaches altitude 10° 17:55:47 10° 129° (SE) 2,455 4.3 -16.6°
Enters shadow 17:56:18 11° 124° (SE) 2,363 4.2 -16.7°
